Regional Weather Roundup
Issued by NWS

Home | Current Version | Previous Version | Text Only | Print | Product List | Glossary On
Versions: 1 2 3 4 5 6 7 8 9 10 11 12 13 14 15 16 17 18 19 20 21 22 23 24 25 26 27 28 29 30 31 32 33 34 35 36 37 38 39 40 41 42 43 44 45 46 47 48 49 50
000
ASUS43 KIND 240609
RWRIN

WEATHER ROUNDUP FOR INDIANA
NATIONAL WEATHER SERVICE INDIANAPOLIS IN
100 AM EST FRI NOV 24 2017

NOTE: "FAIR" INDICATES FEW OR NO CLOUDS BELOW 12,000 FEET WITH NO
SIGNIFICANT WEATHER AND/OR OBSTRUCTIONS TO VISIBILITY.

* - STATION DOES NOT REPORT WEATHER SUCH AS PRECIPITATION OR FOG.

+ - STATION NOT QUALITY CONTROLLED BY THE NATIONAL WEATHER SERVICE.
    USE DATA WITH CAUTION...ESPECIALLY DEWPOINT AND RELATIVE
    HUMIDITY OBSERVATIONS.

INZ001>003-010>013-019-020-240700-
NORTHWEST INDIANA

CITY           SKY/WX    TMP DP  RH WIND       PRES   REMARKS
GARY /AIRPORT/ CLEAR     35  28  76 CALM      29.91F
KNOX *+        CLEAR     32  27  80 CALM      29.92F
LA PORTE +     CLEAR     32  25  76 SW5       29.92F WCI  27
6HR MIN TEMP:  30; 6HR MAX TEMP:  36;

MICHIGAN CITY+ CLEAR     34  27  75 S6        29.92S WCI  29
MONTICELLO +   CLEAR     35  23  62 S5        29.94F WCI  31
6HR MIN TEMP:  33; 6HR MAX TEMP:  38;

RENSSELAER +   CLEAR     32  25  74 S5        29.92F WCI  27
VALPARAISO     CLEAR     33  26  75 S3        29.92F
6HR MIN TEMP:  33; 6HR MAX TEMP:  40;


$$

LMZ046-743>745-240700-
SOUTHERN LAKE MICHIGAN

STATION/POSITION TIME  TEMP    WIND        PRES    WAVE
                       AIR SEA DIR/SP/G            HT
                 (UTC) (F)     (DEG/KT/KT) (MB)    (FT)
BURNS HARBOR     0540   36     190/ 10/ 12 1013.2F
MICHIGAN CITY    0540   37     170/ 13/ 16   N/A

$$

INZ004-005-014>016-021>024-240700-
NORTH CENTRAL INDIANA

CITY           SKY/WX    TMP DP  RH WIND       PRES   REMARKS
GOSHEN         CLEAR     35  23  61 S12       29.91F WCI  27
6HR MIN TEMP:  33; 6HR MAX TEMP:  36;

LOGANSPORT +   CLEAR     32  27  80 S6        29.95F WCI  26
PERU/GRISSOM   CLEAR     33  25  73 S8        29.94F WCI  26
6HR MIN TEMP:  30; 6HR MAX TEMP:  33;

ROCHESTER +    CLEAR     36  27  69 S6        29.94F WCI  31
SOUTH BEND     CLEAR     32  25  75 S9        29.91F WCI  24
6HR MIN TEMP:  32; 6HR MAX TEMP:  36;

WARSAW +       CLEAR     32  23  69 CALM      29.93F

$$

INZ006>009-017-018-025>027-240700-
NORTHEAST INDIANA

CITY           SKY/WX    TMP DP  RH WIND       PRES   REMARKS
AUBURN +       CLOUDY    32  23  69 S3        29.95F
FORT WAYNE     PTCLDY    30  25  81 S7        29.96F WCI  23
6HR MIN TEMP:  30; 6HR MAX TEMP:  35;

HUNTINGTON +   CLEAR     31  24  74 S3        29.96F
6HR MIN TEMP:  30; 6HR MAX TEMP:  35;

KENDALLVILLE + CLOUDY    33  23  68 S8        29.92F WCI  26

$$

INZ028-029-035-036-043>045-051>053-240700-
WEST CENTRAL INDIANA

CITY           SKY/WX    TMP DP  RH WIND       PRES   REMARKS
CRAWFORDSVL +  CLEAR     32  24  74 MISG      29.95R
6HR MIN TEMP:  29; 6HR MAX TEMP:  33;

GREENCASTLE +  CLEAR     32  23  69 S3        29.98S
LAFAYETTE      CLEAR     31  24  75 CALM      29.95F
6HR MIN TEMP:  30; 6HR MAX TEMP:  38;

TERRE HAUTE    CLEAR     29  22  75 SE3       29.98F
6HR MIN TEMP:  28; 6HR MAX TEMP:  37;


$$

INZ030>032-037>040-046>048-054>057-064-065-240700-
CENTRAL INDIANA

CITY           SKY/WX    TMP DP  RH WIND       PRES   REMARKS
CP ATTERBURY + CLOUDY    27  23  86 CALM      30.00F
FISHERS *+     CLEAR     30  25  80 CALM      29.98
FRANKFORT +    CLEAR     34  27  75 S6        29.96F WCI  29
6HR MIN TEMP:  33; 6HR MAX TEMP:  37;

GREENWOOD *+   CLOUDY    34  25  67 S3        29.99F
6HR MIN TEMP:  32; 6HR MAX TEMP:  40;

INDIANAPOLIS   CLEAR     31  22  69 S3        29.98F
6HR MIN TEMP:  31; 6HR MAX TEMP:  39;

-EAGLE CREEK   CLEAR     30  22  72 CALM      29.97F
6HR MIN TEMP:  30; 6HR MAX TEMP:  40;

KOKOMO +       CLEAR     32  24  72 S7        29.96F WCI  26
6HR MIN TEMP:  31; 6HR MAX TEMP:  36;

MARION +       CLEAR     30  25  80 S5        29.97F WCI  25
MT COMFORT *+  CLOUDY    28  25  86 S3        29.99S
SHELBYVILLE    CLOUDY    31  23  72 S6        29.99F WCI  25
6HR MIN TEMP:  29; 6HR MAX TEMP:  38;

ZIONSVILLE +   CLEAR     32  22  67 S5        29.97F WCI  28
6HR MIN TEMP:  31; 6HR MAX TEMP:  36;


$$

INZ033-034-041-042-049-050-058-059-240700-
EAST CENTRAL INDIANA

CITY           SKY/WX    TMP DP  RH WIND       PRES   REMARKS
MUNCIE         CLEAR     35  24  64 S7        29.98F WCI  29
6HR MIN TEMP:  35; 6HR MAX TEMP:  39;

RICHMOND +     CLOUDY    28  25  86 SW5       30.00S WCI  23

$$

INZ060-061-067>069-081>083-085>088-240700-
SOUTHWEST INDIANA

CITY           SKY/WX    TMP DP  RH WIND       PRES   REMARKS
EVANSVILLE     CLEAR     31  27  85 CALM      30.02F
6HR MIN TEMP:  31; 6HR MAX TEMP:  43;

HUNTINGBURG +  CLEAR     37  24  59 S6        30.01F WCI  32
6HR MIN TEMP:  32; 6HR MAX TEMP:  41;

WASHINGTON +   CLEAR     33  24  70 SE7       30.00S WCI  27
6HR MIN TEMP:  30; 6HR MAX TEMP:  39;


$$

INZ062-063-066-070>080-084-089>092-240700-
SOUTH CENTRAL AND SOUTHEAST INDIANA

CITY           SKY/WX    TMP DP  RH WIND       PRES   REMARKS
BEDFORD +      CLOUDY    32  23  69 S3        29.99F
BLOOMINGTON    CLEAR     31  22  69 CALM      29.98F
6HR MIN TEMP:  28; 6HR MAX TEMP:  39;

MADISON *+     CLEAR     30  27  86 CALM      30.03S
NORTH VERNON + CLOUDY    27  25  93 CALM      30.01F
SEYMOUR +      CLOUDY    30  25  80 CALM      30.02S

$$





USA.gov is the U.S. government's official web portal to all federal, state and local government web resources and services.